DELTA 1 DEB

Satellite information

Favourite Embed

Satellite Type and Status

DEBRISIN ORBIT

Key statistics

Satellite DELTA 1 DEB at a glance.

Uptime

17230

Days in orbit

Revolutions

≈ 14.3

Per day

Orbit

SSO

Sun Synchronous Orbit

Inclination

99.2

Latest

Satellite identification and parameters

Extended collection of information and parameters for DELTA 1 DEB.

Object identification

Identified? True

Debris? True

Object name: DELTA 1 DEB

International designator: 1978-026HW

Object number (NORAD): 37635

Object ID (CCSDS): 37635

Country: UNITED STATES OF AMERICA (US)

Current information (Y/N): Y

RCS size: SMALL

Orbital parameters

Period: 101.03 minutes

Inclination: 99.1891 deg

SMA: 7185.567 km

Apoapsis: 842.231 km

Periapsis: 772.633 km

RAAN: 126.3939 deg

Eccentricy: 0.0048429

Argument of periapsis: 157.8137 deg

Mean anomaly: 220.245 deg

Mean motion: 14.25316238 rev/day

Mean motion (dot): 0.00001961 rev/day2

B* drag term: 0.00084269 1/REarth

Two-line elements (TLE)

Creation date: May 7, 2025, 3:14 a.m.

Reference frame: TEME

Reference center: EARTH

Epoch: May 6, 2025, 6:20 a.m. UTC

TLE line 0: 0 DELTA 1 DEB

TLE line 1: 1 37635U 78026HW 25126.26433220 .00001961 00000-0 84269-3 0 9994

TLE line 2: 2 37635 99.1891 126.3939 0048429 157.8137 220.2450 14.25316238613814

Live tracking on map

Real-time ground track for satellite DELTA 1 DEB.

In-orbit conjunctions

A list of the most updated potential collisions computed for object DELTA 1 DEB.

Target Orbit TCA Probability of collision Miss distance Type
SL-3 DEB LEO 2024-11-13 14:22:18 0.0002831181 515.0 (m) DEBRIS
CZ-6A DEB LEO 2024-11-02 19:35:22 0.0001230671 535.0 (m) DEBRIS
SL-16 DEB LEO 2024-09-20 08:43:25 0.0001286817 182.0 (m) DEBRIS

Associated space launch

Earth observation satellite

DELTA 1 DEB was lifted into orbit during the mission ‘Delta 2910 | Landsat 3’, on board a Delta 2910 space rocket.

The launch took place on March 5, 1978, 5:54 p.m. from Space Launch Complex 2W.

For more information about the launch, click the button.

Launch to space Delta 2910 | Landsat 3
Delta 2910 | Landsat 3

Agency: N/A

Status: Launch Successful

Launch date: March 5, 1978, 5:54 p.m. UTC

Rocket: Delta 2910

Launch pad: Space Launch Complex 2W

Location: Vandenberg SFB, CA, USA

...

Latest news about this satellite

There are no fresh news available about this satellite. Check back as we update our databases every day.


Newsletter sign-up

Weekly statistics, charts and insights to help you stay on top of the space industry.